Tekamah, NE

6:39 PM CST on January 21, 2017 (GMT -0600)
Tekamah

Weather History for KTQE - October, 2011

Change the Weather History Date:

Saturday, October 22, 2011

  Actual Average Record
Temperature  
Mean Temperature 50 °F -  
Max Temperature 61 °F 65 °F 87 °F (1975)
Min Temperature 39 °F 38 °F 19 °F (1976)
Degree Days  
Heating Degree Days 16    
Moisture  
Dew Point 39 °F    
Average Humidity 70    
Maximum Humidity 93    
Minimum Humidity 49    
Precipitation  
Precipitation 0.01 in - - ()
Sea Level Pressure  
Sea Level Pressure 30.09 in    
Wind  
Wind Speed 5 mph (SSE)    
Max Wind Speed 12 mph    
Max Gust Speed -    
Visibility 8 miles    
Events Rain    
Averages and records for this station are not official NWS values.
T = Trace of Precipitation, MM = Missing Value Source: NWS Daily Summary

Daily Weather History Graph

Daily Weather History Graph

Search for Another Location

Airport or City:

Trip Planner

Search our weather history database for the weather conditions in past years. The results will help you decide how hot, cold, wet, or windy it might be!

Date:

Astronomy

Oct. 22, 2011 Rise Set
Actual Time 7:44 AM CDT 6:33 PM CDT
Civil Twilight 7:16 AM CDT 7:01 PM CDT
Nautical Twilight 6:43 AM CDT 7:33 PM CDT
Astronomical Twilight 6:11 AM CDT 8:05 PM CDT
Moon 2:39 AM CDT 3:55 PM CDT
Length of Visible Light 11h 44m
Length of Day
10h 48m
Waning Crescent, 23% of the Moon is Illuminated
Oct 22
Waning Crescent
Oct 26
New
Nov 2
First Quarter
Nov 10
Full
Nov 18
Last Quarter

Hourly Weather History & Observations

Time (CDT) Temp. Windchill Dew Point Humidity Pressure Visibility Wind Dir Wind Speed Gust Speed Precip Events Conditions
12:54 AM 43.0 °F 40.3 °F 33.1 °F 68% 30.08 in 10.0 mi North 4.6 mph - N/A   Clear
2:54 AM 42.1 °F 36.6 °F 33.1 °F 70% 30.06 in 10.0 mi WSW 9.2 mph - N/A   Clear
3:54 AM 45.0 °F 41.2 °F 37.0 °F 74% 30.08 in 10.0 mi WNW 6.9 mph - N/A   Clear
4:54 AM 41.0 °F 37.1 °F 35.1 °F 79% 30.10 in 10.0 mi NE 5.8 mph - N/A   Clear
5:54 AM 39.9 °F 36.7 °F 34.0 °F 79% 30.11 in 10.0 mi NNE 4.6 mph - N/A   Clear
6:54 AM 41.0 °F - 34.0 °F 76% 30.12 in 10.0 mi Calm Calm - N/A   Partly Cloudy
7:54 AM 44.1 °F 42.5 °F 36.0 °F 73% 30.12 in 10.0 mi North 3.5 mph - N/A   Mostly Cloudy
8:54 AM 46.0 °F 40.6 °F 39.0 °F 76% 30.11 in 7.0 mi NE 11.5 mph - 0.00 in Rain Light Rain
9:54 AM 48.0 °F - 43.0 °F 83% 30.14 in 7.0 mi WNW 4.6 mph - 0.00 in   Overcast
10:54 AM 51.1 °F - 44.1 °F 77% 30.13 in 6.0 mi NNE 4.6 mph - 0.01 in   Haze
11:54 AM 55.0 °F - 44.1 °F 67% 30.13 in 6.0 mi East 3.5 mph - N/A   Haze
12:54 PM 55.9 °F - 42.1 °F 60% 30.13 in 6.0 mi Calm Calm - N/A   Haze
1:54 PM 57.9 °F - 42.1 °F 56% 30.11 in 6.0 mi ESE 3.5 mph - N/A   Haze
2:54 PM 57.9 °F - 42.1 °F 56% 30.10 in 8.0 mi SSW 4.6 mph - N/A   Overcast
3:54 PM 60.1 °F - 41.0 °F 49% 30.09 in 8.0 mi South 6.9 mph - N/A   Overcast
4:54 PM 60.1 °F - 41.0 °F 49% 30.06 in 8.0 mi SSE 6.9 mph - N/A   Clear
5:54 PM 57.0 °F - 42.1 °F 57% 30.05 in 8.0 mi SSE 6.9 mph - N/A   Clear
6:54 PM 51.1 °F - 39.9 °F 66% 30.05 in 10.0 mi South 4.6 mph - N/A   Mostly Cloudy
7:54 PM 46.9 °F - 37.9 °F 71% 30.04 in 10.0 mi SW 4.6 mph - N/A   Clear
8:54 PM 43.0 °F 40.3 °F 37.0 °F 80% 30.04 in 8.0 mi WSW 4.6 mph - N/A   Partly Cloudy
9:54 PM 44.1 °F - 39.0 °F 82% 30.04 in 7.0 mi Calm Calm - N/A   Mostly Cloudy
11:54 PM 39.0 °F - 37.0 °F 93% 30.01 in 6.0 mi Calm Calm - N/A   Clear